User: anonymous   Login
Location: Ottawa
(45.4170°N, 75.7000°W)
Time: 03:21:05
(UTC-04:00)
Language:

Aureole 3 Rocket - Orbit

View from above orbital plane
View from above orbital plane
View from above satellite
View from above satellite

Ground track
Ground track

The orbit data is extracted from the following two-line orbital elements,

1 12849U 81094B   15210.86696215  .00000973  00000-0  86474-4 0  9990
2 12849 082.4956 334.6556 0907747 104.7980 265.5421 13.49343543649075
Epoch (UTC): 29 July 2015 20:48:25
Eccentricity: 0.0907747
inclination: 82.4956°
perigee height: 398 km
apogee height: 1751 km
right ascension of ascending node: 334.6556°
argument of perigee: 104.7980°
revolutions per day: 13.49343543
mean anomaly at epoch: 265.5421°
orbit number at epoch: 64907

The dashed part of the orbit path shows where the satellite is in the earth's shadow,  

DLR